Date String (YYYY-MM-DD hh:mm:ss) UTC,Instrument flags,absolute air pressure of the measurement (hPa),sample flow rate (lpm),inlet stack bypass flow (lpm),air temperature of the measurement (°C),ambient temperature measured by the external sensor (°C),aerosol sample conditioner tube jacket temperature (°C),OPC LED temperature (°C),internal box temperature (°C),relative humidity of the measurement (%),span deviation,mass concentration of particles derived from Lorenz-Mie calculation of OPC scattering (μg/m³),mass concentration of particles derived from Lorenz-Mie calculation of OPC scattering (μg/m³),mass concentration of particles derived from Lorenz-Mie calculation of OPC scattering (μg/m³)
DateTimeUTC,F1_M11,P_M11,Q1_M11,Q2_M11,T1_M11,T2_M11,T3_M11,T4_M11,T5_M11,U1_M11,ZSPAN_M11,X2_M11,X0_M11,X1_M11
2023-11-05 17:00:00,SystemResetWarning,0826.6,5.00,000.00,028.3,027.6,000.0,036.6,029.8,12.7,0000.0,0004.39,0008.39,0004.00
2023-11-05 17:01:00,SystemResetWarning,0826.6,5.00,000.00,028.3,027.6,000.0,036.6,029.9,12.2,0000.0,0004.38,0008.44,0003.99
2023-11-05 17:02:00,SystemResetWarning,0826.6,5.01,000.00,028.4,027.6,000.0,036.6,029.9,11.9,0000.0,0004.39,0008.69,0003.98
2023-11-05 17:03:00,SystemResetWarning,0826.6,5.00,000.00,028.4,027.6,000.0,036.6,029.9,11.3,0000.0,0004.34,0009.46,0003.96
2023-11-05 17:04:00,SystemResetWarning,0826.6,5.00,000.00,028.4,027.7,000.0,036.6,029.9,11.0,0000.0,0004.29,0009.62,0003.92
2023-11-05 17:05:00,SystemResetWarning,0826.6,5.00,000.00,028.4,027.7,000.0,036.6,029.9,11.6,0000.0,0004.26,0009.79,0003.89
2023-11-05 17:06:00,SystemResetWarning,0826.6,5.00,000.00,028.4,027.7,000.0,036.7,029.9,11.4,0000.0,0004.23,0009.65,0003.87
2023-11-05 17:07:00,SystemResetWarning,0826.5,5.00,000.00,028.4,027.7,000.0,036.7,029.9,11.4,0000.0,0004.19,0009.42,0003.85
2023-11-05 17:08:00,SystemResetWarning,0826.6,4.99,000.00,028.5,027.7,000.0,036.7,029.9,11.6,0000.0,0004.17,0009.23,0003.85
2023-11-05 17:09:00,SystemResetWarning,0826.6,4.99,000.00,028.5,027.7,000.0,036.7,030.0,11.7,0000.0,0004.16,0008.90,0003.85
2023-11-05 17:10:00,SystemResetWarning,0826.6,4.99,000.00,028.5,027.7,000.0,036.7,030.0,11.2,0000.0,0004.14,0008.44,0003.84
2023-11-05 17:11:00,SystemResetWarning,0826.6,5.00,000.00,028.5,026.4,000.0,036.7,030.0,10.8,0000.0,0004.10,0008.45,0003.82
2023-11-05 17:12:00,SystemResetWarning,0826.6,5.00,000.00,028.4,024.7,000.0,036.7,029.7,11.1,0000.0,0004.05,0008.27,0003.79
2023-11-05 17:13:00,SystemResetWarning,0826.8,5.00,000.00,028.3,024.6,000.0,036.6,029.5,11.2,0000.0,0003.99,0008.13,0003.75
2023-11-05 17:14:00,SystemResetWarning,0826.5,5.01,000.00,028.2,024.9,000.0,036.6,029.1,11.4,0000.0,0003.97,0007.70,0003.73
2023-11-05 17:15:00,SystemResetWarning,0826.2,4.99,000.00,028.1,025.3,000.0,036.5,029.1,10.9,0000.0,0003.94,0007.35,0003.72
2023-11-05 17:16:00,SystemResetWarning,0826.2,4.99,000.00,028.0,025.7,000.0,036.5,029.2,10.1,0000.0,0003.91,0006.96,0003.70
2023-11-05 17:17:00,SystemResetWarning,0826.2,5.00,000.00,028.0,026.0,000.0,036.5,029.3,9.2,0000.0,0003.87,0006.87,0003.65
2023-11-05 17:18:00,SystemResetWarning,0826.2,5.00,000.00,028.0,026.3,000.0,036.4,029.4,9.1,0000.0,0003.80,0007.03,0003.60
2023-11-05 17:19:00,SystemResetWarning,0826.3,5.01,000.00,028.0,026.5,000.0,036.4,029.4,10.1,0000.0,0003.71,0007.12,0003.53
2023-11-05 17:20:00,SystemResetWarning,0826.4,5.00,000.00,028.0,026.7,000.0,036.4,029.5,10.8,0000.0,0003.65,0006.97,0003.49
2023-11-05 17:21:00,SystemResetWarning,0826.5,5.00,000.00,028.0,026.8,000.0,036.4,029.5,10.7,0000.0,0003.61,0006.90,0003.45
2023-11-05 17:22:00,SystemResetWarning,0826.4,5.00,000.00,028.1,027.0,000.0,036.4,029.6,10.3,0000.0,0003.58,0006.99,0003.43
2023-11-05 17:23:00,SystemResetWarning,0826.2,5.00,000.00,028.1,027.1,000.0,036.4,029.6,10.3,0000.0,0003.59,0007.31,0003.41
2023-11-05 17:24:00,SystemResetWarning,0826.2,5.00,000.00,028.1,027.2,000.0,036.4,029.7,8.8,0000.0,0003.57,0007.31,0003.39
2023-11-05 17:25:00,SystemResetWarning,0826.2,5.00,000.00,028.1,027.2,000.0,036.4,029.7,8.8,0000.0,0003.51,0006.57,0003.34
2023-11-05 17:26:00,SystemResetWarning,0826.3,5.00,000.00,028.2,027.3,000.0,036.4,029.7,9.3,0000.0,0003.45,0006.16,0003.27
2023-11-05 17:27:00,SystemResetWarning,0826.0,5.00,000.00,028.2,027.4,000.0,036.4,029.8,10.1,0000.0,0003.42,0005.96,0003.23
2023-11-05 17:28:00,SystemResetWarning,0826.0,5.00,000.00,028.2,027.5,000.0,036.5,029.8,10.7,0000.0,0003.44,0005.84,0003.23
2023-11-05 17:29:00,SystemResetWarning,0826.3,5.00,000.00,028.3,027.5,000.0,036.5,029.9,10.3,0000.0,0003.46,0006.08,0003.24
2023-11-05 17:30:00,SystemResetWarning,0826.3,5.00,000.00,028.3,027.6,000.0,036.5,029.9,9.7,0000.0,0003.49,0005.73,0003.26
2023-11-05 17:31:00,SystemResetWarning,0826.2,4.99,000.00,028.4,027.6,000.0,036.5,029.9,10.0,0000.0,0003.51,0006.02,0003.28
2023-11-05 17:32:00,SystemResetWarning,0826.3,5.00,000.00,028.4,027.7,000.0,036.6,030.0,10.4,0000.0,0003.50,0006.04,0003.26
2023-11-05 17:33:00,SystemResetWarning,0826.1,4.99,000.00,028.4,026.9,000.0,036.6,030.0,10.5,0000.0,0003.50,0006.04,0003.26
2023-11-05 17:34:00,SystemResetWarning,0826.1,5.00,000.00,028.4,025.0,000.0,036.5,029.7,10.8,0000.0,0003.47,0005.38,0003.25
2023-11-05 17:35:00,SystemResetWarning,0826.4,5.01,000.00,028.3,024.4,000.0,036.5,029.5,11.2,0000.0,0003.47,0005.27,0003.25
2023-11-05 17:36:00,SystemResetWarning,0826.3,5.01,000.00,028.2,024.7,000.0,036.4,029.2,10.7,0000.0,0003.50,0005.33,0003.28
2023-11-05 17:37:00,SystemResetWarning,0826.2,4.99,000.00,028.0,025.1,000.0,036.4,029.1,10.6,0000.0,0003.52,0005.37,0003.32
2023-11-05 17:38:00,SystemResetWarning,0826.4,5.00,000.00,028.0,025.5,000.0,036.4,029.1,10.2,0000.0,0003.56,0006.40,0003.34
2023-11-05 17:39:00,SystemResetWarning,0826.4,5.01,000.00,027.9,025.8,000.0,036.3,029.2,9.9,0000.0,0003.55,0007.23,0003.32
2023-11-05 17:40:00,SystemResetWarning,0826.6,4.98,000.00,027.9,026.1,000.0,036.3,029.3,9.9,0000.0,0003.53,0007.07,0003.29
2023-11-05 17:41:00,SystemResetWarning,0826.3,5.00,000.00,028.0,026.4,000.0,036.3,029.4,8.5,0000.0,0003.51,0007.48,0003.27
2023-11-05 17:42:00,SystemResetWarning,0826.3,5.01,000.00,028.0,026.6,000.0,036.3,029.4,8.1,0000.0,0003.46,0007.84,0003.22
2023-11-05 17:43:00,SystemResetWarning,0826.3,5.01,000.00,028.0,026.7,000.0,036.3,029.5,8.0,0000.0,0003.40,0007.85,0003.15
2023-11-05 17:44:00,SystemResetWarning,0826.4,4.99,000.00,028.0,026.9,000.0,036.3,029.5,8.0,0000.0,0003.32,0007.84,0003.08
2023-11-05 17:45:00,SystemResetWarning,0826.2,4.99,000.00,028.0,027.0,000.0,036.3,029.5,7.7,0000.0,0003.27,0007.98,0002.95
2023-11-05 17:46:00,SystemResetWarning,0826.2,5.00,000.00,028.1,027.1,000.0,036.3,029.6,7.7,0000.0,0003.22,0007.96,0002.80
2023-11-05 17:47:00,SystemResetWarning,0826.3,5.00,000.00,028.1,027.2,000.0,036.3,029.6,7.9,0000.0,0003.16,0008.78,0002.65
2023-11-05 17:48:00,SystemResetWarning,0826.2,5.00,000.00,028.1,027.2,000.0,036.3,029.7,7.9,0000.0,0003.13,0008.91,0002.52
2023-11-05 17:49:00,SystemResetWarning,0826.1,5.00,000.00,028.2,027.3,000.0,036.4,029.7,7.7,0000.0,0003.02,0008.37,0002.41
2023-11-05 17:50:00,SystemResetWarning,0826.2,5.00,000.00,028.2,027.3,000.0,036.4,029.7,7.8,0000.0,0002.87,0007.81,0002.30
2023-11-05 17:51:00,SystemResetWarning,0826.1,5.00,000.00,028.2,027.3,000.0,036.4,029.8,7.8,0000.0,0002.74,0007.98,0002.21
2023-11-05 17:52:00,SystemResetWarning,0826.1,5.00,000.00,028.2,026.0,000.0,036.4,029.6,7.8,0000.0,0002.64,0007.27,0002.12
2023-11-05 17:53:00,SystemResetWarning,0826.0,5.00,000.00,028.1,024.4,000.0,036.3,029.4,7.8,0000.0,0002.58,0006.43,0002.07
2023-11-05 17:54:00,SystemResetWarning,0825.9,5.02,000.00,028.0,024.4,000.0,036.3,029.2,8.0,0000.0,0002.54,0006.37,0002.04
2023-11-05 17:55:00,SystemResetWarning,0825.9,5.00,000.00,027.9,024.8,000.0,036.3,028.9,8.1,0000.0,0002.56,0007.39,0002.01
2023-11-05 17:56:00,SystemResetWarning,0826.0,4.99,000.00,027.8,025.1,000.0,036.2,028.8,8.0,0000.0,0002.55,0007.27,0002.01
2023-11-05 17:57:00,SystemResetWarning,0825.9,5.00,000.00,027.8,025.4,000.0,036.2,028.9,8.0,0000.0,0002.49,0007.25,0002.01
2023-11-05 17:58:00,SystemResetWarning,0826.0,5.00,000.00,027.8,025.8,000.0,036.2,029.0,8.0,0000.0,0002.41,0005.57,0001.99
2023-11-05 17:59:00,SystemResetWarning,0826.0,5.01,000.00,027.8,026.1,000.0,036.1,029.2,8.2,0000.0,0002.33,0005.17,0001.96
